Regional Weather Roundup
Issued by NWS Wakefield, VA

Home | Current Version | Previous Version | Text Only | Print | Product List | Glossary On
Versions: 1 2 3 4 5 6 7 8 9 10 11 12 13 14 15 16 17 18 19 20 21 22 23 24 25 26 27 28 29 30 31 32 33 34 35 36 37 38 39 40 41 42 43 44 45 46 47 48 49 50
000
ASUS41 KAKQ 221110
RWRAKQ

REGIONAL WEATHER ROUNDUP
NATIONAL WEATHER SERVICE WAKEFIELD VA
600 AM EST MON DEC 22 2014

Note: "fair" indicates few or no clouds below 12,000 feet with no
significant weather and/or obstructions to visibility. * = Denotes
station may not report precipitation (e.g., rain,snow,etc.),
thunder or fog.

VAZ042-051-052>054-056-221200-
NORTHERN VIRGINIA

CITY           SKY/WX    TMP DP  RH WIND       PRES   REMARKS
WASH NATIONAL  CLOUDY    34  25  69 N3        30.32R
DULLES         CLOUDY    29  23  78 CALM      30.29R
FORT BELVOIR   CLOUDY    33  26  75 N1        30.30R
QUANTICO       CLOUDY    34  27  75 E5        30.31R
FREDERICKSBRG* CLOUDY    34  29  84 CALM      30.28S
STAFFORD*      CLOUDY    32  32 100 CALM      30.33S
WARRENTON      CLOUDY    32  31  94 CALM      30.28S
CULPEPER*      CLOUDY    32  28  86 CALM      30.28F
MANASSAS*      CLOUDY    30  28  93 N3        30.30R
LEESBURG*      CLOUDY    30  28  93 CALM      30.30R
WINCHESTER     CLOUDY    30  23  74 CALM      30.25R
FRONT ROYAL*   CLOUDY    28  25  86 CALM      30.24R
LURAY*         CLOUDY    32  30  93 N3        30.22F
$$

VAZ048-049-060>072-079>083-221200-
CENTRAL AND SOUTH CENTRAL VIRGINIA

CITY           SKY/WX    TMP DP  RH WIND       PRES   REMARKS
RICHMOND       CLOUDY    37  28  70 NE6       30.24R
CHESTERFIELD*  CLOUDY    37  19  48 NE5       30.23F
PETERSBURG*    LGT RAIN  37  32  82 NE6       30.22F
HANOVER        CLOUDY    34  28  79 N3        30.25F
TAPPAHANNOCK*  CLOUDY    36  28  75 N3        30.27R
QUINTON*       CLOUDY    36  30  80 NE5       30.24R
CHARLOTTSVILLE CLOUDY    32  26  78 NE9       30.24S
GORDONSVILLE*  CLOUDY    32  27  82 NE7       30.24F
ORANGE*        CLOUDY    32  30  93 N5        30.27F
LOUISA*        CLOUDY    34  28  80 N6        30.23F
BUMPASS*       CLOUDY    32  28  85 N3        30.25F
FARMVILLE*     CLOUDY    38  30  74 N6        30.22R
CREWE*         CLOUDY    35  31  84 CALM      30.21R
FORT PICKETT*  CLOUDY    35  31  86 N7        30.21R
CHASE CITY*    CLOUDY    36  36  99 NE3       30.20R
CLARKSVILLE*   CLOUDY    34  32  93 NE5       30.18S
SOUTH HILL*    CLOUDY    34  32  92 N9        30.23R
LAWRENCEVILLE* CLOUDY    35  32  89 N5        30.19R
EMPORIA*       MIX PCPN  34  34 100 N6        30.20F
$$

VAZ088>098-221200-
SOUTHEAST VIRGINIA

CITY           SKY/WX    TMP DP  RH WIND       PRES   REMARKS
NORFOLK        LGT RAIN  40  36  86 NE17      30.21R
VIRGINIA BEACH LGT RAIN  44  40  85 NE14      30.20R FOG
NORFOLK NAVAL  LGT RAIN  43  35  73 NE18      30.22F
WEST POINT*    CLOUDY    40  31  70 NE6       30.26S
SALUDA*        CLOUDY    38  30  74 NE6       30.24F
NEWPORT NEWS   LGT RAIN  42  32  67 NE9       30.22F
LANGLEY AFB    DRIZZLE   39  34  81 NE17      30.23S
FORT EUSTIS    LGT RAIN  39  34  80 NE7       30.21S
WILLIAMSBURG*  CLOUDY    39  37  93 NE5       30.23S
HR EXEC AP*    CLOUDY    39  36  87 NE10G16   30.22F
FRANKLIN*      CLOUDY    37  37 100 NE8       30.19F
WAKEFIELD      LGT RAIN  38  33  82 NE6       30.20F
$$

VAZ020-022-025-037-045-221200-
WEST CENTRAL AND SOUTHWEST VIRGINIA

CITY           SKY/WX    TMP DP  RH WIND       PRES   REMARKS
STAUNTON*      CLOUDY    32  27  81 CALM      30.22S
WAYNESBORO*    CLOUDY    32  25  76 SE5       30.19S
HOT SPRINGS VA CLOUDY    29  29 100 SE8       30.05S
LYNCHBURG      CLOUDY    34  28  79 NE12      30.20S
DANVILLE       LGT RAIN  35  32  88 NE8       30.19F
SOUTH BOSTON*  CLOUDY    34  32  92 NE6       30.19F
MARTINSVILLE   DRIZZLE   36  35  95 NE6       30.20S
ROANOKE        CLOUDY    37  27  67 SE3       30.20S
BLACKSBURG     CLOUDY    34  28  77 E3        30.16S
DUBLIN*        CLOUDY    36  32  87 E6        30.13S
MARION*        CLOUDY    37  34  90 E8        30.11F FOG
HILLSVILLE*    CLOUDY    33  31  90 NE3       30.09S
RICHLANDS*     CLOUDY    40  34  80 CALM      30.03S
WISE*          CLOUDY    41  34  75 SE5       30.03S
ABINGDON*      CLOUDY    42  37  83 E9        30.04F
$$

MDZ021>025-VAZ099-100-221200-
SOUTHERN MARYLAND AND THE DELMARVA PENINSULA

CITY           SKY/WX    TMP DP  RH WIND       PRES   REMARKS
PATUXENT RIVER CLOUDY    35  27  72 E9        30.27S
BAY BRIDGE APT   N/A     32  27  80 E5        30.30S
LEONARDTOWN    CLOUDY    34  28  80 CALM      30.29S
DOVER          MOCLDY    26  25  97 N8        30.27F
GEORGETOWN     CLOUDY    31  26  82 NE5       30.29S
EASTON         PTCLDY    30  28  93 E5        30.32S
CAMBRIDGE      CLOUDY    34  28  80 CALM      30.28R
SALISBURY      CLOUDY    34  27  75 NE6       30.26F
OCEAN CITY     CLOUDY    37  33  85 NE7       30.27S
WALLOPS ISLAND CLOUDY    36  31  82 N6        30.26S
ACCOMACK*      CLOUDY    36  30  80 NE5       30.24S
$$

NCZ012>017-030>032-221200-
NORTH CENTRAL AND EASTERN NORTH CAROLINA

CITY           SKY/WX    TMP DP  RH WIND       PRES   REMARKS
ROANOKE RAPIDS HVY RAIN  36  34  93 NE8       30.16S
RALEIGH        LGT RAIN  36  33  89 NE12      30.14F
ELIZABETH CITY RAIN      47  41  80 NE16      30.16S
AHOSKIE*       RAIN      37  36  94 N9        30.17S
EDENTON*       RAIN      42  41  96 NE12G20   30.15R
CURRITUCK*     RAIN      45  42  89 NE14      30.17S
KILL DEVIL HLS LGT RAIN  49  47  95 NE10      30.11F
MANTEO         DRIZZLE   49  47  92 NE16G26   30.12S
CAPE HATTERAS  LGT RAIN  56  56 100 E10G16    30.06S
TARBORO*       RAIN      37  37 100 N10G17    30.15R
GOLDSBORO      LGT RAIN  39  39 100 NE10      30.09R
WASHINGTON     CLOUDY    42  40  95 N9        30.12R
GREENVILLE     DRIZZLE   39  39 100 NE7       30.14R
NEW BERN       CLOUDY    48  45  89 N8        30.10R
WILMINGTON     CLOUDY    44  43  96 N9        30.04F FOG
$$

VAZ048-221200-
ELSEWHERE

CITY           SKY/WX    TMP DP  RH WIND       PRES   REMARKS
HARRISBURG PA  PTCLDY    21  18  88 CALM      30.30R FOG
BALTIMORE      CLOUDY    29  23  78 NE3       30.28F
ANNAPOLIS      CLOUDY    32  26  78 CALM      30.30S
ANDREWS AFB    CLOUDY    30  25  83 CALM      30.28R
PHILADELPHIA   CLOUDY    30  23  75 N7        30.31F
HENDERSON NC   LGT RAIN  35  33  92 N8        30.16F
GREENSBORO     LGT RAIN  35  33  92 NE12      30.13S
ROCKY MOUNT    RAIN      38  36  92 NE14      30.13F FOG
$$

VAZ100-221200-
MARINE

STATION/POSITION TIME  TEMP    WIND        PRES    WAVE   SWELL
                       AIR SEA DIR/SP/G            HT/PER HT/PER
                 (UTC) (F)     (DEG/KT/KT) (MB)    (FT/S) (FT/S)
CAPE MAY NJ      1100   31 43   50/  3/  5 1025.6F
LEWES DE         1100   37 41   50/ 11/ 13 1025.3F
15NM E FENWICK I 1100   42 45              1024.7F   2/ 9
OCEAN-CITY-INLET 1100   40 43   40/  4/  8 1024.5S
WACHAPREAGUE VA  1100   38 40   30/  8/ 10 1023.8F
THOMAS POINT MD  1100   33 40   80/  9/ 11 1026.7S
GOOSES REEF MD   1100   35     VRB 10/ 12  1024.5S
COVE POINT MD    1100   33      90/ 12/ 13 1025.1F
SOLOMONS ISLAND  1100      42                N/A
BISHOPS HEAD MD  1100   34 37   40/  7/ 11 1024.4R
POTOMAC MD       1100   38      70/ 12/ 14 1023.9S
CAMBRIDGE MD     1100   33 40   50/  8/ 10 1025.1S
LEWISETTA VA     1100   38 41   70/ 11/ 13 1024.4R
RAPPAHANNOCK LGT 1100           30/ 16/ 17 1024.4S
STINGRAY PT      1100   40      60/ 14/ 16 1024.4F
YORK RVR RNG VA  1100   40      50/ 19/ 21 1022.7F
YORKTOWN VA      1100   40 45   50/ 12/ 13 1023.2S
JAMESTOWN VA     1100   38      80/  4/  8   N/A
DOMINION TERM VA 1100   40      40/  6/ 10 1023.3R
KIPTOPEKE VA     1100      48   50/  7/ 11   N/A
CHES BAY BRIDGE  1100   40 45   20/ 14/ 16 1022.6F
CAPE HENRY VA    1100   43      30/ 19/ 21 1021.8S
CHESAPEAKE LGHT  1000   45      50/ 24/ 25 1022.7F
WILLOUBY STN VA  1100   40      40/ 18/ 19 1023.6R
S CRANEY ISL VA  1100           30/ 13/ 16 1022.9R
CAPE HENRY BUOY  1100      49                N/A     4/ 4
1ST LANDING BUOY 1100   41      20/ 16/ 17 1022.9R
CAPE CHARLES BUO 1100      47                N/A     3/ 4   2/ 9
64NM E OF VA BCH 1100   53 53   50/ 21/ 27 1020.6F   4/ 4   2/ 9
DUCK PIER NC     1100   49 46   40/ 25/ 28 1019.5S
44100 DUCK FRF   1100      52                N/A     6/ 6
44056 DUCK FRF   1100      46                N/A     6/ 6
OREGON INLET NC  1100   50 48   30/ 13/ 17 1019.4S
HATTERAS NC      1100   51 49   60/  8/ 14 1018.2F
DIAMOND SHLS NC  1100   65                 1017.3F   8/ 7
CAPE LOOKOUT NC  1000   54      30/ 14/ 17 1016.5F
$$


USA.gov is the U.S. government's official web portal to all federal, state and local government web resources and services.